1485648000.41,57247,11.44,73792.0,-3.23,-34.19,-34.41,0,*5C
1485648001.64,57248,11.44,73794.8,-3.23,-34.07,-34.35,0,*5F
1485648002.85,57249,11.44,73794.8,-3.23,-34.07,-34.47,0,*5B
1485648004.05,57250,11.44,73794.5,-3.23,-34.07,-34.41,0,*55
1485648005.26,57251,11.44,73794.8,-3.23,-34.07,-34.41,0,*54
1485648006.5,57252,11.44,73792.8,-3.23,-33.89,-34.31,0,*51
1485648007.73,57253,11.44,73794.8,-3.23,-34.13,-34.35,0,*50
1485648008.95,57254,11.44,73794.8,-3.25,-33.95,-34.25,0,*59
1485648010.21,57255,11.44,73794.3,-3.23,-34.01,-34.31,0,*51
1485648011.44,57256,11.44,73794.5,-3.23,-34.07,-34.35,0,*50
1485648012.69,57257,11.44,73794.3,-3.23,-34.01,-34.31,0,*53
1485648013.92,57258,11.44,73792.5,-3.25,-34.13,-34.25,0,*5C
1485648015.17,57259,11.44,73798.0,-3.25,-33.95,-34.35,0,*55
1485648016.41,57260,11.44,73796.3,-3.23,-33.89,-34.31,0,*50
1485648017.64,57261,11.44,73792.3,-3.23,-34.01,-34.41,0,*51
1485648018.89,57262,11.44,73796.3,-3.23,-34.01,-34.31,0,*55
1485648020.15,57263,11.44,73794.8,-3.25,-34.07,-34.35,0,*50
1485648021.41,57264,11.44,73794.3,-3.25,-34.07,-34.35,0,*57
1485648022.66,57265,11.44,73790.8,-3.25,-33.95,-34.35,0,*5A
1485648023.88,57266,11.44,73792.8,-3.25,-33.95,-34.25,0,*58
1485648025.12,57267,11.44,73796.0,-3.23,-34.19,-34.47,0,*58
1485648026.33,57268,11.44,73792.3,-3.23,-34.07,-34.47,0,*58
1485648027.56,57269,11.44,73792.8,-3.25,-34.25,-34.47,0,*5F
1485648028.8,57270,11.44,73794.8,-3.25,-34.13,-34.47,0,*52
1485648030.05,57271,11.44,73794.0,-3.23,-33.89,-34.19,0,*5A
1485648031.3,57272,11.44,73792.3,-3.23,-34.01,-34.31,0,*54
1485648032.5,57273,11.44,73792.5,-3.23,-34.07,-34.41,0,*54
1485648033.76,57274,11.44,73794.0,-3.25,-34.25,-34.53,0,*56
1485648035.02,57275,11.44,73794.8,-3.25,-34.25,-34.53,0,*57
1485648036.28,57276,11.44,73794.3,-3.25,-34.25,-34.53,0,*54
1485648037.53,57277,11.44,73792.8,-3.25,-34.25,-34.53,0,*55
1485648038.8,57278,11.44,73794.8,-3.25,-34.13,-34.53,0,*5F
1485648040.05,57279,11.44,73792.8,-3.25,-34.13,-34.35,0,*5E
1485648041.27,57280,11.44,73792.0,-3.25,-33.95,-34.25,0,*50
1485648042.53,57281,11.44,73794.3,-3.25,-34.07,-34.35,0,*5C
1485648043.76,57282,11.44,73796.5,-3.25,-34.07,-34.25,0,*5E
1485648044.98,57283,11.44,73792.8,-3.25,-33.95,-34.25,0,*53
1485648046.24,57284,11.44,73794.0,-3.25,-34.07,-34.35,0,*59
1485648047.5,57285,11.44,73794.3,-3.25,-34.07,-34.35,0,*58
1485648048.75,57286,11.44,73792.0,-3.25,-34.25,-34.35,0,*5B
1485648049.95,57287,11.44,73792.5,-3.27,-34.07,-34.25,0,*59
1485648051.18,57288,11.44,73794.8,-3.27,-34.01,-34.41,0,*52
1485648052.4,57289,11.44,73792.3,-3.27,-34.19,-34.41,0,*5A
1485648053.66,57290,11.44,73794.5,-3.27,-34.01,-34.53,0,*58
1485648054.86,57291,11.44,73794.8,-3.27,-34.13,-34.41,0,*59
1485648056.09,57292,11.44,73794.5,-3.27,-34.13,-34.31,0,*5D
1485648057.35,57293,11.44,73796.0,-3.27,-34.31,-34.53,0,*58
1485648058.61,57294,11.44,73792.8,-3.27,-34.01,-34.53,0,*5C
1485648059.81,57295,11.44,73794.8,-3.27,-34.13,-34.41,0,*5D
1485648061.01,57296,11.44,73794.5,-3.27,-34.13,-34.41,0,*5E
1485648062.24,57297,11.44,73794.0,-3.27,-34.01,-34.41,0,*5C
1485648063.47,57298,11.44,73796.3,-3.29,-34.13,-34.41,0,*5E
1485648064.7,57299,11.44,73792.5,-3.27,-34.01,-34.13,0,*55
1485648065.93,57300,11.44,73792.8,-3.27,-34.01,-34.41,0,*53
1485648067.15,57301,11.44,73792.3,-3.27,-34.01,-34.41,0,*52
1485648068.41,57302,11.44,73794.0,-3.27,-34.01,-34.31,0,*56
1485648069.66,57303,11.44,73796.5,-3.25,-34.07,-34.35,0,*57
1485648070.89,57304,11.44,73796.0,-3.25,-33.95,-34.25,0,*5D
1485648072.14,57305,11.44,73794.5,-3.25,-33.77,-34.07,0,*50
1485648073.4,57306,11.44,73792.5,-3.25,-33.89,-34.13,0,*57
1485648074.65,57307,11.44,73794.3,-3.25,-34.07,-34.35,0,*53
1485648075.93,57308,11.44,73792.0,-3.25,-33.89,-34.35,0,*5D
1485648077.19,57309,11.44,73794.8,-3.27,-34.31,-34.53,0,*5A
1485648078.42,57310,11.44,73792.3,-3.25,-34.13,-34.47,0,*55
1485648079.66,57311,11.44,73792.8,-3.25,-34.25,-34.47,0,*51
1485648080.89,57312,11.44,73792.8,-3.27,-34.19,-34.59,0,*50
1485648082.15,57313,11.44,73794.0,-3.27,-34.31,-34.53,0,*51
1485648083.37,57314,11.44,73796.3,-3.27,-34.19,-34.41,0,*5F
1485648084.63,57315,11.44,73794.8,-3.27,-34.19,-34.53,0,*5D
1485648085.86,57316,11.44,73794.5,-3.27,-34.01,-34.41,0,*54
1485648087.08,57317,11.44,73794.5,-3.27,-34.19,-34.41,0,*5C
1485648088.31,57318,11.44,73796.3,-3.27,-34.31,-34.41,0,*59
1485648089.54,57319,11.44,73794.5,-3.27,-34.01,-34.41,0,*5B
1485648090.76,57320,11.44,73792.0,-3.29,-34.13,-34.41,0,*5C
1485648091.99,57321,11.44,73794.0,-3.29,-34.13,-34.41,0,*5D
1485648093.23,57322,11.44,73794.5,-3.27,-34.13,-34.53,0,*53
1485648094.43,57323,11.44,73794.0,-3.27,-34.13,-34.41,0,*51
1485648095.63,57324,11.44,73796.3,-3.27,-34.13,-34.41,0,*56
1485648096.85,57325,11.44,73792.3,-3.27,-34.01,-34.41,0,*54
1485648098.06,57326,11.44,73794.8,-3.27,-34.13,-34.41,0,*54
1485648099.31,57327,11.44,73792.5,-3.29,-34.19,-34.41,0,*51
1485648100.56,57328,11.44,73794.8,-3.27,-34.01,-34.31,0,*5E
1485648101.76,57329,11.44,73796.0,-3.27,-34.13,-34.41,0,*5B
1485648103.01,57330,11.44,73794.5,-3.29,-33.83,-34.19,0,*5E
1485648104.24,57331,11.44,73792.8,-3.27,-33.95,-34.19,0,*56
1485648105.5,57332,11.44,73792.8,-3.27,-34.19,-34.53,0,*58
1485648106.72,57333,11.44,73792.5,-3.29,-34.13,-34.41,0,*5E
1485648107.92,57334,11.44,73798.3,-3.27,-34.13,-34.41,0,*57
1485648109.13,57335,11.44,73798.3,-3.27,-34.13,-34.41,0,*56
1485648110.35,57336,11.44,73792.8,-3.29,-34.13,-34.41,0,*5B
1485648111.58,57337,11.44,73796.8,-3.27,-34.19,-34.41,0,*5E
1485648112.8,57338,11.44,73794.3,-3.27,-33.95,-34.31,0,*55
1485648114.02,57339,11.44,73792.8,-3.27,-33.95,-34.19,0,*5E
1485648115.25,57340,11.44,73798.3,-3.27,-33.95,-34.19,0,*50
1485648116.5,57341,11.44,73796.0,-3.27,-34.01,-34.31,0,*51
1485648117.7,57342,11.44,73794.8,-3.27,-34.13,-34.41,0,*56
1485648118.95,57343,11.44,73796.0,-3.29,-33.83,-34.19,0,*5A
1485648120.16,57344,11.44,73792.3,-3.27,-33.83,-34.13,0,*59
1485648121.39,57345,11.44,73792.8,-3.27,-34.13,-34.31,0,*56
1485648122.64,57346,11.44,73794.8,-3.29,-34.01,-34.41,0,*5F
1485648123.9,57347,11.44,73796.3,-3.29,-34.01,-34.41,0,*5E
1485648125.15,57348,11.44,73792.3,-3.27,-34.01,-34.31,0,*58
1485648126.38,57349,11.44,73792.3,-3.27,-34.01,-34.41,0,*5E
1485648127.6,57350,11.44,73792.5,-3.27,-34.01,-34.41,0,*56
1485648128.83,57351,11.44,73796.3,-3.27,-34.01,-34.41,0,*57
1485648130.05,57352,11.44,73794.8,-3.27,-34.19,-34.41,0,*5D
1485648131.26,57353,11.44,73792.3,-3.27,-34.13,-34.41,0,*56
1485648132.51,57354,11.44,73796.3,-3.29,-33.95,-34.31,0,*51
1485648133.73,57355,11.44,73794.8,-3.27,-33.95,-34.19,0,*54
1485648134.95,57356,11.44,73792.8,-3.27,-33.95,-34.19,0,*57
1485648136.17,57357,11.44,73794.3,-3.27,-33.95,-34.19,0,*56
1485648137.43,57358,11.44,73798.3,-3.27,-34.01,-34.19,0,*53
1485648138.68,57359,11.44,73792.3,-3.27,-34.01,-34.31,0,*58
1485648139.89,57360,11.44,73796.3,-3.27,-33.83,-34.13,0,*5F
1485648141.11,57361,11.44,73794.5,-3.27,-33.95,-34.31,0,*59
1485648142.33,57362,11.44,73794.8,-3.27,-33.95,-34.19,0,*50
1485648143.56,57363,11.44,73792.5,-3.27,-33.95,-34.19,0,*51
1485648144.84,57364,11.44,73792.0,-3.29,-34.01,-34.31,0,*58
1485648146.06,57365,11.44,73794.0,-3.27,-34.13,-34.31,0,*54
1485648147.27,57366,11.44,73794.5,-3.27,-34.13,-34.41,0,*50
1485648148.47,57367,11.44,73796.5,-3.27,-34.13,-34.41,0,*51
1485648149.72,57368,11.44,73792.5,-3.29,-34.19,-34.41,0,*5A
1485648150.97,57369,11.44,73796.8,-3.27,-34.01,-34.31,0,*5B
1485648152.2,57370,11.44,73794.0,-3.27,-34.01,-34.41,0,*54
1485648153.42,57371,11.44,73796.8,-3.27,-34.01,-34.41,0,*55
1485648154.7,57372,11.44,73796.3,-3.29,-34.01,-34.31,0,*5F
1485648155.93,57373,11.44,73794.5,-3.27,-34.13,-34.31,0,*53
1485648157.16,57374,11.44,73792.5,-3.27,-34.01,-34.41,0,*50
1485648158.38,57375,11.44,73794.8,-3.27,-33.95,-34.31,0,*5C
1485648159.61,57376,11.44,73794.3,-3.27,-34.01,-34.41,0,*52
1485648160.83,57377,11.44,73798.3,-3.27,-33.95,-34.31,0,*5E
1485648162.06,57378,11.44,73794.8,-3.27,-33.95,-34.31,0,*51
1485648163.32,57379,11.44,73796.3,-3.29,-34.13,-34.53,0,*53
1485648164.58,57380,11.44,73794.8,-3.29,-34.31,-34.71,0,*55
1485648165.84,57381,11.44,73794.0,-3.29,-34.35,-34.59,0,*5A
1485648167.12,57382,11.44,73794.5,-3.29,-34.31,-34.53,0,*57
1485648168.35,57383,11.44,73792.0,-3.27,-34.31,-34.59,0,*52
1485648169.64,57384,11.44,73794.5,-3.29,-34.31,-34.53,0,*51
1485648170.86,57385,11.44,73794.8,-3.27,-34.19,-34.41,0,*57
1485648172.12,57386,11.44,73794.0,-3.27,-34.01,-34.31,0,*5A
1485648173.34,57387,11.44,73792.5,-3.29,-34.13,-34.41,0,*51
1485648174.6,57388,11.44,73792.5,-3.29,-34.19,-34.41,0,*54
1485648175.85,57389,11.44,73792.5,-3.29,-34.31,-34.41,0,*5F
1485648177.05,57390,11.44,73792.8,-3.27,-34.13,-34.41,0,*59
1485648178.25,57391,11.44,73792.8,-3.27,-34.13,-34.41,0,*58
1485648179.5,57392,11.44,73796.5,-3.29,-34.31,-34.41,0,*55
1485648180.75,57393,11.44,73794.0,-3.29,-34.19,-34.41,0,*5E
1485648182.0,57394,11.44,73794.5,-3.29,-34.19,-34.41,0,*59
1485648183.26,57395,11.44,73792.0,-3.29,-34.13,-34.31,0,*55
1485648184.54,57396,11.44,73794.5,-3.29,-34.01,-34.31,0,*55
1485648185.77,57397,11.44,73794.8,-3.29,-34.13,-34.41,0,*50
1485648186.99,57398,11.44,73792.8,-3.29,-34.13,-34.41,0,*5F
1485648188.25,57399,11.44,73792.5,-3.29,-34.13,-34.31,0,*59
1485648189.5,57400,11.44,73794.3,-3.29,-34.13,-34.31,0,*5E
1485648190.73,57401,11.44,73792.0,-3.29,-34.13,-34.41,0,*58
1485648192.01,57402,11.44,73794.5,-3.29,-34.19,-34.31,0,*56
1485648193.26,57403,11.44,73798.0,-3.29,-34.01,-34.41,0,*59
1485648194.52,57404,11.44,73792.0,-3.29,-34.01,-34.41,0,*5E
1485648195.77,57405,11.44,73794.0,-3.29,-34.19,-34.41,0,*56
1485648196.99,57406,11.44,73792.8,-3.29,-34.13,-34.41,0,*5F
1485648198.27,57407,11.44,73798.0,-3.29,-34.19,-34.31,0,*53
1485648199.53,57408,11.44,73796.3,-3.29,-34.13,-34.31,0,*56
1485648200.79,57409,11.44,73794.3,-3.29,-34.31,-34.59,0,*59
1485648202.07,57410,11.44,73794.8,-3.29,-34.31,-34.53,0,*5B
1485648203.32,57411,11.44,73796.0,-3.29,-34.01,-34.41,0,*5A
1485648204.58,57412,11.44,73792.8,-3.29,-34.13,-34.31,0,*5D
1485648205.82,57413,11.44,73794.3,-3.33,-34.07,-34.47,0,*53
1485648207.1,57414,11.44,73792.0,-3.33,-34.19,-34.35,0,*5E
1485648208.35,57415,11.44,73796.0,-3.35,-34.01,-34.47,0,*55
1485648209.61,57416,11.44,73792.0,-3.33,-34.07,-34.35,0,*53
1485648210.89,57417,11.44,73792.0,-3.33,-34.01,-34.19,0,*5A
1485648212.15,57418,11.44,73798.3,-3.33,-34.01,-34.25,0,*5A
1485648213.43,57419,11.44,73792.3,-3.29,-34.01,-34.31,0,*55
1485648214.68,57420,11.44,73798.0,-3.27,-34.01,-34.31,0,*51
1485648215.91,57421,11.44,73794.3,-3.27,-34.01,-34.41,0,*57
1485648217.16,57422,11.44,73794.8,-3.29,-34.31,-34.41,0,*59
1485648218.41,57423,11.44,73792.8,-3.29,-33.95,-34.31,0,*56
1485648219.64,57424,11.44,73794.8,-3.29,-34.13,-34.41,0,*5F
1485648220.89,57425,11.44,73792.3,-3.33,-34.01,-34.25,0,*54
1485648222.18,57426,11.44,73794.5,-3.33,-34.19,-34.35,0,*5F
1485648223.44,57427,11.44,73792.3,-3.33,-34.19,-34.47,0,*5B
1485648224.67,57428,11.44,73798.5,-3.33,-34.07,-34.25,0,*5F
1485648225.96,57429,11.44,73792.3,-3.33,-34.19,-34.35,0,*50
1485648227.22,57430,11.44,73794.3,-3.33,-34.07,-34.35,0,*57
1485648228.46,57431,11.44,73796.3,-3.35,-34.19,-34.47,0,*5A
1485648229.72,57432,11.44,73796.5,-3.33,-34.19,-34.47,0,*5F
1485648230.99,57433,11.44,73792.5,-3.33,-34.19,-34.47,0,*5E
1485648232.25,57434,11.44,73794.5,-3.33,-34.07,-34.35,0,*53
1485648233.53,57435,11.44,73792.3,-3.33,-34.19,-34.35,0,*5D
1485648234.81,57436,11.44,73794.0,-3.29,-34.01,-34.31,0,*58
1485648236.05,57437,11.44,73794.3,-3.35,-34.19,-34.47,0,*5C
1485648237.29,57438,11.44,73794.0,-3.33,-34.07,-34.47,0,*5A
1485648238.56,57439,11.44,73798.5,-3.33,-34.19,-34.47,0,*54
1485648239.83,57440,11.44,73794.0,-3.33,-34.19,-34.47,0,*5A
1485648241.1,57441,11.44,73792.8,-3.33,-33.89,-34.19,0,*5E
1485648242.35,57442,11.44,73792.5,-3.33,-33.89,-34.25,0,*52
1485648243.59,57443,11.44,73792.5,-3.33,-34.07,-34.25,0,*52
1485648244.85,57444,11.44,73794.8,-3.33,-34.07,-34.35,0,*54
1485648246.11,57445,11.44,73792.0,-3.33,-34.07,-34.35,0,*55
1485648247.37,57446,11.44,73796.8,-3.33,-34.07,-34.35,0,*56
1485648248.62,57447,11.44,73794.5,-3.33,-33.89,-34.25,0,*57
1485648249.9,57448,11.44,73794.0,-3.33,-34.19,-34.35,0,*57
1485648251.15,57449,11.44,73794.5,-3.33,-33.89,-34.25,0,*59
1485648252.37,57450,11.44,73792.8,-3.35,-33.89,-34.25,0,*57
1485648253.63,57451,11.44,73796.0,-3.33,-34.07,-34.35,0,*50
1485648254.89,57452,11.44,73792.5,-3.33,-34.07,-34.35,0,*53
1485648256.13,57453,11.44,73792.5,-3.35,-34.01,-34.25,0,*53
1485648257.41,57454,11.44,73796.0,-3.33,-34.19,-34.35,0,*5A
1485648258.67,57455,11.44,73794.3,-3.33,-34.19,-34.47,0,*5E
1485648259.96,57456,11.44,73794.8,-3.33,-34.01,-34.35,0,*51
1485648261.22,57457,11.44,73796.0,-3.33,-34.19,-34.47,0,*5C
1485648262.51,57458,11.44,73794.8,-3.33,-34.01,-34.35,0,*5F
1485648263.77,57459,11.44,73794.3,-3.33,-34.19,-34.47,0,*52
1485648265.04,57460,11.44,73792.5,-3.33,-34.19,-34.47,0,*58
1485648266.27,57461,11.44,73792.0,-3.33,-34.25,-34.47,0,*56
1485648267.51,57462,11.44,73794.8,-3.33,-34.25,-34.47,0,*55
1485648268.79,57463,11.44,73792.0,-3.33,-34.19,-34.35,0,*5E
1485648270.04,57464,11.44,73792.5,-3.33,-34.07,-34.47,0,*53
1485648271.28,57465,11.44,73794.5,-3.35,-34.19,-34.47,0,*5B
1485648272.54,57466,11.44,73794.0,-3.33,-34.19,-34.47,0,*5E
1485648273.77,57467,11.44,73794.8,-3.35,-33.89,-34.25,0,*53
1485648275.0,57468,11.44,73796.0,-3.35,-33.89,-34.25,0,*5C
1485648276.25,57469,11.44,73796.3,-3.35,-34.01,-34.19,0,*55
1485648277.54,57470,11.44,73794.8,-3.33,-34.01,-34.35,0,*55
1485648278.78,57471,11.44,73794.8,-3.35,-34.01,-34.47,0,*57
1485648280.04,57472,11.44,73796.5,-3.33,-34.07,-34.35,0,*51
1485648281.32,57473,11.44,73792.0,-3.33,-34.01,-34.19,0,*58
1485648282.59,57474,11.44,73792.8,-3.33,-34.01,-34.47,0,*54
1485648283.85,57475,11.44,73794.5,-3.33,-34.07,-34.35,0,*56
1485648285.09,57476,11.44,73794.8,-3.35,-34.07,-34.35,0,*53
1485648286.37,57477,11.44,73796.5,-3.33,-34.01,-34.35,0,*52
1485648287.65,57478,11.44,73794.5,-3.33,-33.89,-34.19,0,*54
1485648288.9,57479,11.44,73794.8,-3.33,-34.01,-34.25,0,*5D
1485648290.12,57480,11.44,73792.5,-3.35,-34.07,-34.47,0,*5F
1485648291.38,57481,11.44,73794.0,-3.33,-34.07,-34.35,0,*5D
1485648292.66,57482,11.44,73794.5,-3.29,-34.01,-34.31,0,*57
1485648293.93,57483,11.44,73792.8,-3.33,-34.19,-34.47,0,*55
1485648295.19,57484,11.44,73794.8,-3.33,-34.07,-34.35,0,*58
1485648296.45,57485,11.38,73792.8,-3.33,-34.01,-34.25,0,*5E
1485648297.72,57486,11.44,73792.8,-3.33,-33.89,-34.19,0,*55
1485648298.98,57487,11.44,73794.5,-3.33,-34.01,-34.25,0,*5C
1485648300.26,57488,11.44,73798.5,-3.33,-34.01,-34.35,0,*52
1485648301.52,57489,11.44,73794.0,-3.33,-34.07,-34.35,0,*55
1485648302.78,57490,11.44,73796.0,-3.33,-34.07,-34.35,0,*5D
1485648304.03,57491,11.38,73794.8,-3.33,-33.89,-34.25,0,*5C
1485648305.32,57492,11.44,73792.0,-3.33,-34.01,-34.35,0,*59
1485648306.55,57493,11.44,73792.5,-3.35,-34.01,-34.25,0,*5F
1485648307.76,57494,11.44,73794.0,-3.35,-34.07,-34.25,0,*5E
1485648309.02,57495,11.38,73792.8,-3.33,-34.07,-34.35,0,*58
1485648310.24,57496,11.44,73794.8,-3.35,-34.07,-34.47,0,*58
1485648311.52,57497,11.44,73794.5,-3.33,-34.19,-34.35,0,*55
1485648312.78,57498,11.44,73794.8,-3.33,-34.07,-34.35,0,*55
1485648314.03,57499,11.44,73796.8,-3.35,-33.89,-34.19,0,*5D
1485648315.31,57500,11.44,73796.5,-3.33,-34.01,-34.35,0,*53
1485648316.58,57501,11.44,73794.3,-3.33,-34.19,-34.47,0,*5E
1485648317.84,57502,11.44,73794.3,-3.33,-34.19,-34.59,0,*52
1485648319.1,57503,11.44,73792.0,-3.33,-34.07,-34.35,0,*56
1485648320.38,57504,11.38,73790.8,-3.33,-34.01,-34.35,0,*57
1485648321.63,57505,11.44,73794.3,-3.35,-34.19,-34.47,0,*5C
1485648322.87,57506,11.38,73790.8,-3.33,-34.07,-34.47,0,*56
1485648324.11,57507,11.44,73792.5,-3.35,-34.19,-34.47,0,*5E
1485648325.39,57508,11.44,73798.0,-3.33,-34.19,-34.35,0,*52
1485648326.64,57509,11.38,73794.8,-3.33,-34.07,-34.47,0,*59
1485648327.9,57510,11.44,73794.3,-3.33,-34.19,-34.47,0,*5E
1485648329.14,57511,11.44,73794.0,-3.35,-34.19,-34.47,0,*59
1485648330.38,57512,11.44,73792.8,-3.35,-34.19,-34.47,0,*5A
1485648331.62,57513,11.44,73794.0,-3.35,-34.19,-34.47,0,*5B
1485648332.83,57514,11.38,73792.8,-3.35,-34.25,-34.59,0,*5C
1485648334.12,57515,11.44,73794.3,-3.33,-34.19,-34.35,0,*5E
1485648335.4,57516,11.38,73794.5,-3.33,-34.19,-34.35,0,*5D
1485648336.64,57517,11.38,73792.3,-3.33,-34.25,-34.47,0,*56
1485648337.87,57518,11.44,73796.3,-3.33,-34.25,-34.59,0,*56
1485648339.11,57519,11.38,73788.8,-3.35,-34.19,-34.47,0,*51
1485648340.35,57520,11.38,73792.8,-3.35,-34.01,-34.47,0,*52
1485648341.59,57521,11.38,73792.5,-3.35,-34.07,-34.35,0,*50
1485648342.85,57522,11.38,73794.3,-3.35,-34.01,-34.35,0,*55
1485648344.11,57523,11.44,73794.0,-3.33,-34.19,-34.47,0,*5E
1485648345.4,57524,11.44,73796.0,-3.33,-34.01,-34.35,0,*55
1485648346.64,57525,11.38,73792.8,-3.35,-34.19,-34.47,0,*5E
1485648347.88,57526,11.44,73794.5,-3.35,-34.19,-34.47,0,*5D
1485648349.12,57527,11.38,73790.8,-3.35,-34.25,-34.65,0,*53
1485648350.39,57528,11.38,73790.3,-3.35,-34.35,-34.65,0,*5D
1485648351.63,57529,11.38,73794.3,-3.35,-34.19,-34.47,0,*52
1485648352.84,57530,11.44,73794.5,-3.35,-34.07,-34.25,0,*51
1485648354.08,57531,11.38,73794.8,-3.35,-34.19,-34.47,0,*5B
1485648355.29,57532,11.38,73792.8,-3.35,-34.25,-34.47,0,*57
1485648356.58,57533,11.38,73794.0,-3.33,-34.01,-34.35,0,*53
1485648357.84,57534,11.44,73794.0,-3.35,-34.01,-34.35,0,*52
1485648359.08,57535,11.44,73794.3,-3.35,-34.01,-34.47,0,*56
1485648360.33,57536,11.38,73792.8,-3.33,-33.89,-34.25,0,*50
1485648361.59,57537,11.44,73798.0,-3.35,-34.01,-34.35,0,*51
1485648362.83,57538,11.44,73794.5,-3.35,-34.07,-34.35,0,*58
1485648364.07,57539,11.44,73796.0,-3.35,-34.19,-34.47,0,*53
1485648365.31,57540,11.38,73794.3,-3.35,-34.19,-34.47,0,*5D
1485648366.55,57541,11.44,73798.5,-3.35,-34.19,-34.47,0,*5C
1485648367.78,57542,11.38,73790.8,-3.35,-34.07,-34.35,0,*55
1485648369.03,57543,11.38,73792.8,-3.35,-34.19,-34.47,0,*5E
1485648370.27,57544,11.44,73794.8,-3.35,-34.19,-34.47,0,*59
1485648371.49,57545,11.38,73792.5,-3.35,-34.07,-34.47,0,*57
1485648372.75,57546,11.44,73796.0,-3.33,-34.19,-34.47,0,*5D
1485648373.97,57547,11.44,73798.0,-3.35,-34.07,-34.47,0,*55
1485648375.18,57548,11.38,73794.3,-3.35,-34.25,-34.47,0,*5A
1485648376.4,57549,11.44,73792.8,-3.35,-34.25,-34.47,0,*5B
1485648377.64,57550,11.44,73796.3,-3.33,-34.25,-34.47,0,*55
1485648378.85,57551,11.44,73794.8,-3.35,-34.07,-34.47,0,*52
1485648380.1,57552,11.38,73794.5,-3.35,-34.19,-34.47,0,*5E
1485648381.36,57553,11.38,73792.0,-3.37,-34.25,-34.53,0,*57
1485648382.65,57554,11.44,73794.5,-3.37,-34.31,-34.53,0,*55
1485648383.85,57555,11.38,73794.0,-3.35,-34.07,-34.25,0,*52
1485648385.08,57556,11.44,73796.3,-3.37,-34.25,-34.41,0,*51
1485648386.37,57557,11.38,73794.5,-3.37,-34.31,-34.65,0,*53
1485648387.61,57558,11.38,73794.5,-3.39,-34.41,-34.65,0,*55
1485648388.87,57559,11.38,73792.0,-3.37,-34.41,-34.65,0,*5A
1485648390.13,57560,11.44,73796.8,-3.37,-34.25,-34.53,0,*57
1485648391.4,57561,11.38,73792.8,-3.37,-34.25,-34.53,0,*56
1485648392.6,57562,11.38,73792.5,-3.39,-34.13,-34.41,0,*5D
1485648393.83,57563,11.38,73794.8,-3.39,-34.25,-34.53,0,*5A
1485648395.09,57564,11.38,73792.5,-3.39,-34.31,-34.53,0,*58
1485648396.35,57565,11.38,73792.5,-3.37,-34.41,-34.53,0,*50
1485648397.55,57566,11.44,73796.3,-3.39,-34.07,-34.25,0,*5E
1485648398.81,57567,11.38,73794.5,-3.37,-34.07,-34.31,0,*54
1485648400.04,57568,11.38,73794.8,-3.39,-33.95,-34.31,0,*59
1485648401.23,57569,11.38,73794.5,-3.39,-33.95,-34.25,0,*5D
1485648402.43,57570,11.38,73794.5,-3.39,-33.95,-34.25,0,*55
1485648403.63,57571,11.38,73794.3,-3.39,-34.25,-34.41,0,*5A
1485648404.85,57572,11.38,73792.5,-3.37,-34.25,-34.41,0,*57
1485648406.09,57573,11.44,73794.8,-3.37,-34.07,-34.41,0,*56
1485648407.29,57574,11.44,73796.0,-3.39,-34.13,-34.41,0,*5A
1485648408.51,57575,11.38,73794.5,-3.37,-33.95,-34.25,0,*5E
1485648409.75,57576,11.38,73792.0,-3.37,-34.07,-34.41,0,*53
1485648410.98,57577,11.38,73790.5,-3.37,-34.13,-34.41,0,*57
1485648412.21,57578,11.38,73794.0,-3.37,-34.13,-34.41,0,*58
1485648413.44,57579,11.44,73796.0,-3.39,-34.25,-34.53,0,*51
1485648414.68,57580,11.38,73792.0,-3.39,-34.07,-34.53,0,*57
1485648415.88,57581,11.44,73796.8,-3.39,-34.07,-34.41,0,*55
1485648417.08,57582,11.38,73792.3,-3.39,-33.95,-34.25,0,*58
1485648418.31,57583,11.38,73792.0,-3.39,-34.07,-34.31,0,*50
1485648419.54,57584,11.38,73794.3,-3.37,-34.07,-34.41,0,*5E
1485648420.77,57585,11.44,73796.8,-3.37,-33.95,-34.25,0,*51
1485648421.99,57586,11.38,73792.0,-3.37,-33.95,-34.25,0,*52
1485648423.25,57587,11.38,73794.3,-3.37,-34.25,-34.53,0,*5E
1485648424.54,57588,11.38,73790.3,-3.37,-34.31,-34.53,0,*54
1485648425.81,57589,11.38,73792.8,-3.37,-34.13,-34.53,0,*55
1485648427.04,57590,11.38,73792.3,-3.39,-34.07,-34.31,0,*52
1485648428.27,57591,11.38,73794.0,-3.39,-34.13,-34.53,0,*52
1485648429.5,57592,11.38,73792.8,-3.39,-34.13,-34.31,0,*55
1485648430.76,57593,11.38,73792.3,-3.37,-33.95,-34.31,0,*53
1485648431.95,57594,11.38,73792.8,-3.39,-33.95,-34.25,0,*5F
1485648433.18,57595,11.44,73796.8,-3.39,-34.07,-34.31,0,*57
1485648434.44,57596,11.38,73794.0,-3.37,-34.25,-34.53,0,*5E
1485648435.64,57597,11.38,73794.8,-3.39,-34.25,-34.41,0,*52
1485648436.86,57598,11.38,73792.8,-3.39,-33.95,-34.31,0,*56
1485648438.09,57599,11.38,73796.5,-3.39,-34.07,-34.31,0,*5B
1485648439.29,57600,11.44,73798.3,-3.39,-33.95,-34.25,0,*51
1485648440.52,57601,11.38,73794.3,-3.39,-33.95,-34.31,0,*55
1485648441.75,57602,11.38,73792.8,-3.39,-34.25,-34.53,0,*5E
1485648442.98,57603,11.38,73794.5,-3.39,-34.13,-34.53,0,*5A
1485648444.21,57604,11.38,73794.3,-3.39,-34.07,-34.31,0,*5C
1485648445.49,57605,11.38,73794.0,-3.43,-34.19,-34.35,0,*5B
1485648446.75,57606,11.38,73796.0,-3.43,-34.19,-34.47,0,*5D
1485648448.01,57607,11.38,73796.0,-3.43,-34.19,-34.47,0,*5C
1485648449.21,57608,11.38,73794.3,-3.39,-34.07,-34.41,0,*57
1485648450.44,57609,11.38,73794.5,-3.39,-34.07,-34.31,0,*51
1485648451.67,57610,11.38,73794.5,-3.39,-34.13,-34.31,0,*5C
1485648452.9,57611,11.38,73792.8,-3.37,-34.25,-34.41,0,*51
1485648454.13,57612,11.38,73792.3,-3.39,-34.13,-34.53,0,*5A
1485648455.33,57613,11.38,73794.8,-3.39,-34.13,-34.41,0,*58
1485648456.53,57614,11.38,73794.0,-3.39,-33.95,-34.41,0,*56
1485648457.74,57615,11.38,73794.8,-3.39,-34.07,-34.41,0,*5B
1485648458.97,57616,11.38,73792.0,-3.37,-34.07,-34.25,0,*54
1485648460.19,57617,11.38,73792.8,-3.39,-33.95,-34.31,0,*52
1485648461.42,57618,11.38,73792.8,-3.39,-34.07,-34.31,0,*51
1485648462.65,57619,11.38,73794.8,-3.39,-34.07,-34.31,0,*50
1485648463.86,57620,11.38,73794.8,-3.39,-34.07,-34.41,0,*5D
1485648465.08,57621,11.38,73796.5,-3.39,-33.95,-34.31,0,*57
1485648466.31,57622,11.38,73794.5,-3.39,-34.07,-34.31,0,*58
1485648467.53,57623,11.38,73792.8,-3.39,-33.95,-34.31,0,*55
1485648468.73,57624,11.38,73792.8,-3.39,-33.95,-34.25,0,*57
1485648470.01,57625,11.44,73798.0,-3.43,-34.01,-34.35,0,*50
1485648471.26,57626,11.38,73794.3,-3.43,-34.13,-34.35,0,*50
1485648472.46,57627,11.38,73792.8,-3.39,-33.95,-34.25,0,*54
1485648473.66,57628,11.38,73792.3,-3.39,-34.07,-34.41,0,*55
1485648474.86,57629,11.38,73794.8,-3.39,-34.13,-34.41,0,*51
1485648476.06,57630,11.38,73792.3,-3.39,-34.13,-34.25,0,*5B
1485648477.29,57631,11.38,73792.3,-3.39,-34.07,-34.31,0,*5A
1485648478.52,57632,11.38,73794.3,-3.39,-34.07,-34.31,0,*59
1485648479.73,57633,11.38,73792.8,-3.39,-34.13,-34.41,0,*5A
1485648480.92,57634,11.38,73794.5,-3.39,-33.95,-34.25,0,*56
1485648482.12,57635,11.44,73796.0,-3.39,-33.95,-34.25,0,*57
1485648483.34,57636,11.38,73794.0,-3.37,-33.95,-34.25,0,*5A
1485648484.57,57637,11.38,73792.8,-3.39,-33.95,-34.31,0,*50
1485648485.8,57638,11.38,73792.3,-3.39,-34.25,-34.53,0,*57
1485648487.0,57639,11.38,73794.5,-3.39,-34.13,-34.41,0,*50
1485648488.24,57640,11.38,73794.0,-3.43,-34.13,-34.47,0,*55
1485648489.49,57641,11.38,73792.3,-3.43,-34.13,-34.31,0,*55
1485648490.74,57642,11.38,73792.5,-3.43,-34.13,-34.35,0,*52
1485648491.97,57643,11.38,73792.3,-3.39,-34.07,-34.31,0,*5F
1485648493.21,57644,11.38,73794.5,-3.39,-34.07,-34.53,0,*5C
1485648494.41,57645,11.38,73792.0,-3.39,-34.07,-34.41,0,*5E
1485648495.67,57646,11.38,73796.8,-3.43,-34.13,-34.35,0,*56